Home > Weather > Vincennes > Past weeks

Flag for USA Past Weather in Vincennes, Indiana, USA — Yesterday and Last 2 Weeks

Now
67 °F

Partly cloudy.


Feels Like: 67 °F
Forecast: 67 / 83 °F
Wind: 6 mph from South

Location: Lawrenceville-Vincennes International Airport

Current Time: May 26, 2016 at 6:57:26 AM

Latest Report: May 26, 2016 at 5:53 AM


Visibility: 10 mi

Pressure: 30.00 "Hg

Humidity: 93%

Dew Point: 65 °F

Location of VincennesLocation

Past Weather in Vincennes — Graph

°F

Vincennes Temperature Yesterday

Maximum temperature yesterday: 81 °F (at 12:53 PM)
Minimum temperature yesterday: 63 °F (at 5:53 AM)
Average temperature yesterday: 72 °F

High & Low Weather Summary for the Past Weeks

 TemperatureHumidityPressure
High84 °F (May 24, 1:53 PM)100% (May 11, 5:53 AM)30.27 "Hg (May 11, 5:53 AM)
Low42 °F (May 15, 6:53 AM)26% (May 23, 5:53 PM)29.85 "Hg (May 14, 12:53 AM)
Average61 °F72%30.08 "Hg
* Reported May 11 5:53 AM — May 26 5:53 AM, Vincennes, Weather by CustomWeather, © 2016

Note: Actual official high and low records may vary slightly from our data, if they occured in-between our weather recording intervals... More about our weather records

Advertising

Vincennes Weather History for the Previous 24 Hours

Scroll right to see more
 ConditionsComfort  
Time TempWeatherWind HumidityBarometerVisibility
5:53 AM
Thu, May 26
67 °FPartly cloudy.6 mph93%30.00 "Hg10 mi
4:53 AM67 °FPassing clouds.6 mph93%30.01 "Hg10 mi
3:53 AM68 °FOvercast.7 mph90%30.01 "Hg10 mi
2:53 AM67 °FPassing clouds.6 mph93%30.01 "Hg10 mi
2:00 AM68 °FPassing clouds.7 mph90%30.02 "Hg10 mi
12:53 AM69 °FPassing clouds.10 mph87%30.01 "Hg10 mi
11:53 PM
Wed, May 25
70 °FPassing clouds.12 mph84%30.01 "Hg10 mi
10:53 PM71 °FPassing clouds.12 mph81%30.02 "Hg10 mi
9:53 PM72 °FSunny.13 mph78%30.01 "Hg10 mi
8:53 PM74 °FSunny.14 mph76%29.99 "Hg10 mi
7:53 PM75 °FPassing clouds.15 mph74%29.97 "Hg10 mi
6:53 PM74 °FOvercast.15 mph71%29.98 "Hg10 mi
5:53 PM74 °FScattered clouds.12 mph71%30.00 "Hg10 mi
4:53 PM76 °FSunny.15 mph64%30.03 "Hg10 mi
4:03 PM77 °FBroken clouds.18 mph66%30.07 "Hg10 mi
3:53 PM75 °FPartly sunny.17 mph71%30.06 "Hg10 mi
2:53 PM78 °FSunny.15 mph58%30.03 "Hg10 mi
1:53 PM76 °FPassing clouds.18 mph69%30.06 "Hg10 mi
12:53 PM81 °FScattered clouds.18 mph56%30.07 "Hg10 mi
11:53 AM80 °FScattered clouds.14 mph58%30.06 "Hg10 mi
10:53 AM77 °FPartly sunny.9 mph60%30.06 "Hg10 mi
9:53 AM73 °FOvercast.6 mph71%30.07 "Hg10 mi
8:53 AM71 °FSunny.8 mph76%30.07 "Hg10 mi
7:53 AM66 °FFog.5 mph87%30.07 "Hg6 mi
6:53 AM63 °FFog.No wind90%30.04 "Hg5 mi
Weather by CustomWeather, © 2016

See weather overviewHow to use our weather pages